Weather History for KPHD - June, 2014

Change the Weather History Date:

Friday, June 20, 2014

  Actual Average Record
Temperature  
Mean Temperature 72 °F 70 °F  
Max Temperature 82 °F 81 °F 95 °F (1994)
Min Temperature 61 °F 58 °F 44 °F (1970)
Degree Days  
Heating Degree Days 0 1  
Month to date heating degree days 10 33  
Since 1 June heating degree days 10 33  
Since 1 July heating degree days 6170 5642  
Cooling Degree Days 7 5  
Month to date cooling degree days 90 81  
Year to date cooling degree days 156 124  
Since 1 June cooling degree days 90 81  
Growing Degree Days 21 (Base 50)    
Moisture  
Dew Point 65 °F    
Average Humidity 79    
Maximum Humidity 100    
Minimum Humidity 58    
Precipitation  
Precipitation 0.09 in 0.11 in 1.10 in (1983)
Month to date precipitation 2.66 2.79  
Year to date precipitation 17.84 18.39  
Sea Level Pressure  
Sea Level Pressure 30.00 in    
Wind  
Wind Speed 3 mph (East)    
Max Wind Speed 9 mph    
Max Gust Speed 13 mph    
Visibility 9 miles    
Events Rain    
T = Trace of Precipitation, MM = Missing Value Source: NWS Daily Summary

Daily Weather History Graph

Daily Weather History Graph

Search for Another Location

Airport or City:

Trip Planner

Search our weather history database for the weather conditions in past years. The results will help you decide how hot, cold, wet, or windy it might be!

Date:

Astronomy

Jun. 20, 2014 Rise Set
Actual Time 5:55 AM EDT 8:59 PM EDT
Civil Twilight 5:22 AM EDT 9:32 PM EDT
Nautical Twilight 4:39 AM EDT 10:14 PM EDT
Astronomical Twilight 3:49 AM EDT 11:04 PM EDT
Moon 1:34 AM EDT (6/20) 2:31 PM EDT (6/20)
Length of Visible Light 16h 10m
Length of Day
15h 04m
Last Quarter, 40% of the Moon is Illuminated
Jun 20
Last Quarter
Jun 27
New
Jul 5
First Quarter
Jul 12
Full
Jul 18
Last Quarter

Hourly Weather History & Observations

Time (EDT) Temp. Heat Index Dew Point Humidity Pressure Visibility Wind Dir Wind Speed Gust Speed Precip Events Conditions
12:53 AM 66.9 °F - 64.0 °F 90% 30.09 in 10.0 mi Calm Calm - N/A   Clear
1:53 AM 66.0 °F - 63.0 °F 90% 30.07 in 10.0 mi Calm Calm - N/A   Clear
2:53 AM 64.9 °F - 63.0 °F 93% 30.08 in 10.0 mi Calm Calm - N/A   Clear
3:53 AM 63.0 °F - 61.0 °F 93% 30.07 in 10.0 mi Calm Calm - N/A   Clear
4:53 AM 62.1 °F - 61.0 °F 96% 30.06 in 9.0 mi Calm Calm - N/A   Clear
5:53 AM 61.0 °F - 60.1 °F 97% 30.06 in 9.0 mi Calm Calm - N/A   Partly Cloudy
6:53 AM 63.0 °F - 61.0 °F 93% 30.08 in 10.0 mi Calm Calm - N/A   Overcast
7:53 AM 64.9 °F - 62.1 °F 90% 30.07 in 10.0 mi Calm Calm - N/A   Scattered Clouds
8:53 AM 66.9 °F - 63.0 °F 87% 30.08 in 10.0 mi Calm Calm - N/A   Overcast
9:53 AM 72.0 °F - 64.9 °F 78% 30.06 in 10.0 mi NE 3.5 mph - N/A   Mostly Cloudy
10:53 AM 75.0 °F - 64.0 °F 69% 30.04 in 10.0 mi South 5.8 mph - N/A   Clear
11:53 AM 78.1 °F - 64.9 °F 64% 30.04 in 10.0 mi Variable 4.6 mph - N/A   Scattered Clouds
12:53 PM 80.1 °F 81.7 °F 64.0 °F 58% 30.02 in 10.0 mi SSW 4.6 mph - N/A   Mostly Cloudy
1:53 PM 80.1 °F 81.7 °F 64.0 °F 58% 29.99 in 10.0 mi Calm Calm - N/A   Scattered Clouds
2:53 PM 81.0 °F 82.5 °F 64.0 °F 56% 29.97 in 10.0 mi SE 5.8 mph - N/A   Mostly Cloudy
4:53 PM 75.9 °F - 68.0 °F 76% 29.95 in 10.0 mi East 3.5 mph - 0.01 in Rain Light Rain
5:53 PM 75.9 °F - 70.0 °F 82% 29.94 in 10.0 mi ESE 4.6 mph - 0.01 in   Mostly Cloudy
6:53 PM 75.9 °F - 68.0 °F 76% 29.93 in 10.0 mi ESE 6.9 mph - N/A   Overcast
7:53 PM 73.9 °F - 69.1 °F 85% 29.93 in 10.0 mi SE 5.8 mph - 0.00 in Rain Light Rain
8:53 PM 73.0 °F - 70.0 °F 90% 29.93 in 2.5 mi Calm Calm - 0.04 in Rain Rain
9:06 PM 72.0 °F - 70.0 °F 93% 29.95 in 3.0 mi North 3.5 mph - 0.01 in Rain Light Rain
9:29 PM 72.0 °F - 70.0 °F 93% 29.94 in 6.0 mi East 3.5 mph - 0.02 in Rain Light Rain
9:53 PM 71.1 °F - 69.1 °F 93% 29.93 in 6.0 mi Variable 6.9 mph - 0.02 in Rain Light Rain
10:35 PM 69.1 °F - 66.0 °F 90% 29.94 in 10.0 mi NE 5.8 mph - 0.01 in   Overcast
10:42 PM 68.0 °F - 66.0 °F 93% 29.94 in 10.0 mi ENE 8.1 mph - 0.01 in   Overcast
10:53 PM 68.0 °F - 66.0 °F 93% 29.92 in 10.0 mi ENE 9.2 mph - 0.01 in   Overcast
11:53 PM 68.0 °F - 64.9 °F 90% 29.92 in 10.0 mi Calm Calm - N/A   Overcast